Year,Month,Day,Hour,Minute,Value (Times are PST for temperature in C)
2014,08,11,00,00,24.40
2014,08,11,00,01,24.40
2014,08,11,00,02,24.30
2014,08,11,00,03,24.30
2014,08,11,00,04,24.20
2014,08,11,00,05,24.20
2014,08,11,00,06,24.10
2014,08,11,00,07,24.00
2014,08,11,00,08,24.00
2014,08,11,00,09,23.90
2014,08,11,00,10,23.80
2014,08,11,00,11,23.80
2014,08,11,00,12,23.80
2014,08,11,00,13,23.70
2014,08,11,00,14,23.70
2014,08,11,00,15,23.70
2014,08,11,00,16,23.70
2014,08,11,00,17,23.60
2014,08,11,00,18,23.60
2014,08,11,00,19,23.60
2014,08,11,00,20,23.60
2014,08,11,00,21,23.60
2014,08,11,00,22,23.60
2014,08,11,00,23,23.60
2014,08,11,00,24,23.60
2014,08,11,00,25,23.60
2014,08,11,00,26,23.60
2014,08,11,00,27,23.60
2014,08,11,00,28,23.60
2014,08,11,00,29,23.60
2014,08,11,00,30,23.60
2014,08,11,00,31,23.70
2014,08,11,00,32,23.70
2014,08,11,00,33,23.70
2014,08,11,00,34,23.70
2014,08,11,00,35,23.70
2014,08,11,00,36,23.70
2014,08,11,00,37,23.70
2014,08,11,00,38,23.60
2014,08,11,00,39,23.60
2014,08,11,00,40,23.60
2014,08,11,00,41,23.60
2014,08,11,00,42,23.60
2014,08,11,00,43,23.60
2014,08,11,00,44,23.50
2014,08,11,00,45,23.50
2014,08,11,00,46,23.40
2014,08,11,00,47,23.40
2014,08,11,00,48,23.40
2014,08,11,00,49,23.40
2014,08,11,00,50,23.40
2014,08,11,00,51,23.40
2014,08,11,00,52,23.30
2014,08,11,00,53,23.30
2014,08,11,00,54,23.30
2014,08,11,00,55,23.30
2014,08,11,00,56,23.20
2014,08,11,00,57,23.20
2014,08,11,00,58,23.20
2014,08,11,00,59,23.10
2014,08,11,01,00,23.10
2014,08,11,01,01,23.10
2014,08,11,01,02,23.00
2014,08,11,01,03,23.00
2014,08,11,01,04,22.90
2014,08,11,01,05,22.90
2014,08,11,01,06,22.90
2014,08,11,01,07,22.90
2014,08,11,01,08,22.90
2014,08,11,01,09,22.90
2014,08,11,01,10,23.00
2014,08,11,01,11,23.00
2014,08,11,01,12,23.10
2014,08,11,01,13,23.10
2014,08,11,01,14,23.10
2014,08,11,01,15,23.10
2014,08,11,01,16,23.10
2014,08,11,01,17,23.10
2014,08,11,01,18,23.10
2014,08,11,01,19,23.10
2014,08,11,01,20,23.00
2014,08,11,01,21,23.00
2014,08,11,01,22,23.00
2014,08,11,01,23,23.00
2014,08,11,01,24,23.10
2014,08,11,01,25,23.10
2014,08,11,01,26,23.10
2014,08,11,01,27,23.20
2014,08,11,01,28,23.20
2014,08,11,01,29,23.20
2014,08,11,01,30,23.20
2014,08,11,01,31,23.30
2014,08,11,01,32,23.30
2014,08,11,01,33,23.30
2014,08,11,01,34,23.30
2014,08,11,01,35,23.30
2014,08,11,01,36,23.20
2014,08,11,01,37,23.20
2014,08,11,01,38,23.20
2014,08,11,01,39,23.20
2014,08,11,01,40,23.20
2014,08,11,01,41,23.10
2014,08,11,01,42,23.10
2014,08,11,01,43,23.10
2014,08,11,01,44,23.10
2014,08,11,01,45,23.10
2014,08,11,01,46,23.10
2014,08,11,01,47,23.10
2014,08,11,01,48,23.10
2014,08,11,01,49,23.10
2014,08,11,01,50,23.00
2014,08,11,01,51,23.00
2014,08,11,01,52,23.00
2014,08,11,01,53,22.90
2014,08,11,01,54,22.90
2014,08,11,01,55,22.90
2014,08,11,01,56,22.90
2014,08,11,01,57,22.90
2014,08,11,01,58,22.80
2014,08,11,01,59,22.80
2014,08,11,02,00,22.80
2014,08,11,02,01,22.80
2014,08,11,02,02,22.70
2014,08,11,02,03,22.70
2014,08,11,02,04,22.70
2014,08,11,02,05,22.60
2014,08,11,02,06,22.60
2014,08,11,02,07,22.50
2014,08,11,02,08,22.50
2014,08,11,02,09,22.40
2014,08,11,02,10,22.40
2014,08,11,02,11,22.30
2014,08,11,02,12,22.30
2014,08,11,02,13,22.30
2014,08,11,02,14,22.30
2014,08,11,02,15,22.20
2014,08,11,02,16,22.20
2014,08,11,02,17,22.20
2014,08,11,02,18,22.10
2014,08,11,02,19,22.10
2014,08,11,02,20,22.10
2014,08,11,02,21,22.00
2014,08,11,02,22,22.00
2014,08,11,02,23,21.90
2014,08,11,02,24,21.90
2014,08,11,02,25,21.90
2014,08,11,02,26,21.80
2014,08,11,02,27,21.80
2014,08,11,02,28,21.80
2014,08,11,02,29,21.80
2014,08,11,02,30,21.80
2014,08,11,02,31,21.80
2014,08,11,02,32,21.80
2014,08,11,02,33,21.80
2014,08,11,02,34,21.80
2014,08,11,02,35,21.80
2014,08,11,02,36,21.80
2014,08,11,02,37,21.80
2014,08,11,02,38,21.80
2014,08,11,02,39,21.80
2014,08,11,02,40,21.90
2014,08,11,02,41,21.90
2014,08,11,02,42,21.90
2014,08,11,02,43,22.00
2014,08,11,02,44,22.00
2014,08,11,02,45,22.10
2014,08,11,02,46,22.10
2014,08,11,02,47,22.10
2014,08,11,02,48,22.10
2014,08,11,02,49,22.10
2014,08,11,02,50,22.10
2014,08,11,02,51,22.10
2014,08,11,02,52,22.10
2014,08,11,02,53,22.10
2014,08,11,02,54,22.10
2014,08,11,02,55,22.00
2014,08,11,02,56,22.00
2014,08,11,02,57,22.00
2014,08,11,02,58,21.90
2014,08,11,02,59,21.90
2014,08,11,03,00,21.90
2014,08,11,03,01,21.90
2014,08,11,03,02,21.90
2014,08,11,03,03,21.90
2014,08,11,03,04,21.90
2014,08,11,03,05,21.80
2014,08,11,03,06,21.80
2014,08,11,03,07,21.80
2014,08,11,03,08,21.80
2014,08,11,03,09,21.80
2014,08,11,03,10,21.80
2014,08,11,03,11,21.70
2014,08,11,03,12,21.70
2014,08,11,03,13,21.70
2014,08,11,03,14,21.70
2014,08,11,03,15,21.70
2014,08,11,03,16,21.60
2014,08,11,03,17,21.60
2014,08,11,03,18,21.60
2014,08,11,03,19,21.70
2014,08,11,03,20,21.70
2014,08,11,03,21,21.70
2014,08,11,03,22,21.70
2014,08,11,03,23,21.70
2014,08,11,03,24,21.70
2014,08,11,03,25,21.70
2014,08,11,03,26,21.70
2014,08,11,03,27,21.70
2014,08,11,03,28,21.70
2014,08,11,03,29,21.60
2014,08,11,03,30,21.60
2014,08,11,03,31,21.50
2014,08,11,03,32,21.40
2014,08,11,03,33,21.40
2014,08,11,03,34,21.30
2014,08,11,03,35,21.30
2014,08,11,03,36,21.20
2014,08,11,03,37,21.20
2014,08,11,03,38,21.20
2014,08,11,03,39,21.20
2014,08,11,03,40,21.20
2014,08,11,03,41,21.20
2014,08,11,03,42,21.20
2014,08,11,03,43,21.20
2014,08,11,03,44,21.20
2014,08,11,03,45,21.20
2014,08,11,03,46,21.20
2014,08,11,03,47,21.20
2014,08,11,03,48,21.20
2014,08,11,03,49,21.20
2014,08,11,03,50,21.20
2014,08,11,03,51,21.20
2014,08,11,03,52,21.20
2014,08,11,03,53,21.20
2014,08,11,03,54,21.20
2014,08,11,03,55,21.20
2014,08,11,03,56,21.20
2014,08,11,03,57,21.10
2014,08,11,03,58,21.10
2014,08,11,03,59,21.10
2014,08,11,04,00,21.00
2014,08,11,04,01,21.00
2014,08,11,04,02,20.90
2014,08,11,04,03,20.90
2014,08,11,04,04,20.80
2014,08,11,04,05,20.80
2014,08,11,04,06,20.80
2014,08,11,04,07,20.80
2014,08,11,04,08,20.70
2014,08,11,04,09,20.70
2014,08,11,04,10,20.70
2014,08,11,04,11,20.60
2014,08,11,04,12,20.60
2014,08,11,04,13,20.60
2014,08,11,04,14,20.60
2014,08,11,04,15,20.50
2014,08,11,04,16,20.50
2014,08,11,04,17,20.40
2014,08,11,04,18,20.40
2014,08,11,04,19,20.40
2014,08,11,04,20,20.40
2014,08,11,04,21,20.50
2014,08,11,04,22,20.50
2014,08,11,04,23,20.60
2014,08,11,04,24,20.60
2014,08,11,04,25,20.60
2014,08,11,04,26,20.60
2014,08,11,04,27,20.60
2014,08,11,04,28,20.60
2014,08,11,04,29,20.60
2014,08,11,04,30,20.60
2014,08,11,04,31,20.60
2014,08,11,04,32,20.60
2014,08,11,04,33,20.60
2014,08,11,04,34,20.60
2014,08,11,04,35,20.60
2014,08,11,04,36,20.60
2014,08,11,04,37,20.60
2014,08,11,04,38,20.60
2014,08,11,04,39,20.60
2014,08,11,04,40,20.60
2014,08,11,04,41,20.50
2014,08,11,04,42,20.50
2014,08,11,04,43,20.40
2014,08,11,04,44,20.40
2014,08,11,04,45,20.40
2014,08,11,04,46,20.40
2014,08,11,04,47,20.40
2014,08,11,04,48,20.40
2014,08,11,04,49,20.30
2014,08,11,04,50,20.30
2014,08,11,04,51,20.20
2014,08,11,04,52,20.10
2014,08,11,04,53,20.10
2014,08,11,04,54,20.00
2014,08,11,04,55,19.90
2014,08,11,04,56,19.90
2014,08,11,04,57,19.90
2014,08,11,04,58,19.90
2014,08,11,04,59,19.80
2014,08,11,05,00,19.80
2014,08,11,05,01,19.80
2014,08,11,05,02,19.70
2014,08,11,05,03,19.70
2014,08,11,05,04,19.60
2014,08,11,05,05,19.50
2014,08,11,05,06,19.40
2014,08,11,05,07,19.30
2014,08,11,05,08,19.30
2014,08,11,05,09,19.20
2014,08,11,05,10,19.20
2014,08,11,05,11,19.20
2014,08,11,05,12,19.20
2014,08,11,05,13,19.20
2014,08,11,05,14,19.20
2014,08,11,05,15,19.20
2014,08,11,05,16,19.20
2014,08,11,05,17,19.20
2014,08,11,05,18,19.20
2014,08,11,05,19,19.20
2014,08,11,05,20,19.30
2014,08,11,05,21,19.30
2014,08,11,05,22,19.30
2014,08,11,05,23,19.40
2014,08,11,05,24,19.50
2014,08,11,05,25,19.50
2014,08,11,05,26,19.60
2014,08,11,05,27,19.60
2014,08,11,05,28,19.60
2014,08,11,05,29,19.70
2014,08,11,05,30,19.70
2014,08,11,05,31,19.70
2014,08,11,05,32,19.70
2014,08,11,05,33,19.80
2014,08,11,05,34,19.80
2014,08,11,05,35,19.80
2014,08,11,05,36,19.80
2014,08,11,05,37,19.80
2014,08,11,05,38,19.80
2014,08,11,05,39,19.80
2014,08,11,05,40,19.70
2014,08,11,05,41,19.70
2014,08,11,05,42,19.70
2014,08,11,05,43,19.70
2014,08,11,05,44,19.70
2014,08,11,05,45,19.60
2014,08,11,05,46,19.60
2014,08,11,05,47,19.60
2014,08,11,05,48,19.60
2014,08,11,05,49,19.60
2014,08,11,05,50,19.50
2014,08,11,05,51,19.50
2014,08,11,05,52,19.50
2014,08,11,05,53,19.40
2014,08,11,05,54,19.40
2014,08,11,05,55,19.40
2014,08,11,05,56,19.40
2014,08,11,05,57,19.40
2014,08,11,05,58,19.30
2014,08,11,05,59,19.30
2014,08,11,06,00,19.30
2014,08,11,06,01,19.20
2014,08,11,06,02,19.20
2014,08,11,06,03,19.10
2014,08,11,06,04,19.10
2014,08,11,06,05,19.00
2014,08,11,06,06,19.00
2014,08,11,06,07,18.90
2014,08,11,06,08,18.90
2014,08,11,06,09,18.90
2014,08,11,06,10,18.80
2014,08,11,06,11,18.80
2014,08,11,06,12,18.80
2014,08,11,06,13,18.80
2014,08,11,06,14,18.80
2014,08,11,06,15,18.80
2014,08,11,06,16,18.80
2014,08,11,06,17,18.70
2014,08,11,06,18,18.70
2014,08,11,06,19,18.70
2014,08,11,06,20,18.70
2014,08,11,06,21,18.70
2014,08,11,06,22,18.70
2014,08,11,06,23,18.60
2014,08,11,06,24,18.60
2014,08,11,06,25,18.60
2014,08,11,06,26,18.60
2014,08,11,06,27,18.50
2014,08,11,06,28,18.50
2014,08,11,06,29,18.40
2014,08,11,06,30,18.40
2014,08,11,06,31,18.40
2014,08,11,06,32,18.40
2014,08,11,06,33,18.40
2014,08,11,06,34,18.40
2014,08,11,06,35,18.40
2014,08,11,06,36,18.40
2014,08,11,06,37,18.30
2014,08,11,06,38,18.30
2014,08,11,06,39,18.30
2014,08,11,06,40,18.20
2014,08,11,06,41,18.20
2014,08,11,06,42,18.10
2014,08,11,06,43,18.10
2014,08,11,06,44,18.00
2014,08,11,06,45,18.00
2014,08,11,06,46,17.90
2014,08,11,06,47,17.90
2014,08,11,06,48,17.90
2014,08,11,06,49,17.90
2014,08,11,06,50,17.90
2014,08,11,06,51,17.90
2014,08,11,06,52,17.90
2014,08,11,06,53,17.90
2014,08,11,06,54,17.90
2014,08,11,06,55,18.00
2014,08,11,06,56,18.00
2014,08,11,06,57,18.10
2014,08,11,06,58,18.20
2014,08,11,06,59,18.30
2014,08,11,07,00,18.40
2014,08,11,07,01,18.50
2014,08,11,07,02,18.60
2014,08,11,07,03,18.60
2014,08,11,07,04,18.70
2014,08,11,07,05,18.80
2014,08,11,07,06,18.90
2014,08,11,07,07,19.00
2014,08,11,07,08,19.10
2014,08,11,07,09,19.20
2014,08,11,07,10,19.20
2014,08,11,07,11,19.30
2014,08,11,07,12,19.40
2014,08,11,07,13,19.50
2014,08,11,07,14,19.60
2014,08,11,07,15,19.70
2014,08,11,07,16,19.80
2014,08,11,07,17,19.90
2014,08,11,07,18,19.90
2014,08,11,07,19,20.00
2014,08,11,07,20,20.00
2014,08,11,07,21,20.10
2014,08,11,07,22,20.10
2014,08,11,07,23,20.20
2014,08,11,07,24,20.20
2014,08,11,07,25,20.30
2014,08,11,07,26,20.40
2014,08,11,07,27,20.50
2014,08,11,07,28,20.50
2014,08,11,07,29,20.60
2014,08,11,07,30,20.60
2014,08,11,07,31,20.70
2014,08,11,07,32,20.70
2014,08,11,07,33,20.80
2014,08,11,07,34,20.80
2014,08,11,07,35,20.90
2014,08,11,07,36,20.90
2014,08,11,07,37,21.00
2014,08,11,07,38,21.00
2014,08,11,07,39,21.10
2014,08,11,07,40,21.10
2014,08,11,07,41,21.20
2014,08,11,07,42,21.20
2014,08,11,07,43,21.30
2014,08,11,07,44,21.30
2014,08,11,07,45,21.40
2014,08,11,07,46,21.40
2014,08,11,07,47,21.50
2014,08,11,07,48,21.50
2014,08,11,07,49,21.60
2014,08,11,07,50,21.60
2014,08,11,07,51,21.60
2014,08,11,07,52,21.70
2014,08,11,07,53,21.70
2014,08,11,07,54,21.70
2014,08,11,07,55,21.80
2014,08,11,07,56,21.80
2014,08,11,07,57,21.80
2014,08,11,07,58,21.90
2014,08,11,07,59,21.90
2014,08,11,08,00,21.90
2014,08,11,08,01,21.90
2014,08,11,08,02,21.90
2014,08,11,08,03,22.00
2014,08,11,08,04,22.00
2014,08,11,08,05,22.10
2014,08,11,08,06,22.10
2014,08,11,08,07,22.10
2014,08,11,08,08,22.10
2014,08,11,08,09,22.10
2014,08,11,08,10,22.10
2014,08,11,08,11,22.00
2014,08,11,08,12,22.00
2014,08,11,08,13,21.90
2014,08,11,08,14,22.00
2014,08,11,08,15,22.00
2014,08,11,08,16,22.10
2014,08,11,08,17,22.10
2014,08,11,08,18,22.20
2014,08,11,08,19,22.20
2014,08,11,08,20,22.20
2014,08,11,08,21,22.20
2014,08,11,08,22,22.20
2014,08,11,08,23,22.20
2014,08,11,08,24,22.30
2014,08,11,08,25,22.30
2014,08,11,08,26,22.30
2014,08,11,08,27,22.30
2014,08,11,08,28,22.30
2014,08,11,08,29,22.30
2014,08,11,08,30,22.30
2014,08,11,08,31,22.20
2014,08,11,08,32,22.20
2014,08,11,08,33,22.20
2014,08,11,08,34,22.30
2014,08,11,08,35,22.30
2014,08,11,08,36,22.40
2014,08,11,08,37,22.50
2014,08,11,08,38,22.50
2014,08,11,08,39,22.60
2014,08,11,08,40,22.60
2014,08,11,08,41,22.70
2014,08,11,08,42,22.70
2014,08,11,08,43,22.70
2014,08,11,08,44,22.60
2014,08,11,08,45,22.60
2014,08,11,08,46,22.60
2014,08,11,08,47,22.60
2014,08,11,08,48,22.70
2014,08,11,08,49,22.70
2014,08,11,08,50,22.70
2014,08,11,08,51,22.70
2014,08,11,08,52,22.70
2014,08,11,08,53,22.70
2014,08,11,08,54,22.80
2014,08,11,08,55,22.80
2014,08,11,08,56,22.90
2014,08,11,08,57,23.00
2014,08,11,08,58,23.00
2014,08,11,08,59,23.10
2014,08,11,09,00,23.10
2014,08,11,09,01,23.10
2014,08,11,09,02,23.20
2014,08,11,09,03,23.20
2014,08,11,09,04,23.20
2014,08,11,09,05,23.30
2014,08,11,09,06,23.40
2014,08,11,09,07,23.40
2014,08,11,09,08,23.50
2014,08,11,09,09,23.50
2014,08,11,09,10,23.60
2014,08,11,09,11,23.60
2014,08,11,09,12,23.60
2014,08,11,09,13,23.70
2014,08,11,09,14,23.70
2014,08,11,09,15,23.70
2014,08,11,09,16,23.70
2014,08,11,09,17,23.70
2014,08,11,09,18,23.70
2014,08,11,09,19,23.80
2014,08,11,09,20,23.80
2014,08,11,09,21,23.80
2014,08,11,09,22,23.90
2014,08,11,09,23,23.90
2014,08,11,09,24,24.00
2014,08,11,09,25,24.10
2014,08,11,09,26,24.20
2014,08,11,09,27,24.20
2014,08,11,09,28,24.20
2014,08,11,09,29,24.30
2014,08,11,09,30,24.30
2014,08,11,09,31,24.30
2014,08,11,09,32,24.30
2014,08,11,09,33,24.40
2014,08,11,09,34,24.40
2014,08,11,09,35,24.40
2014,08,11,09,36,24.40
2014,08,11,09,37,24.30
2014,08,11,09,38,24.30
2014,08,11,09,39,24.20
2014,08,11,09,40,24.00
2014,08,11,09,41,23.70
2014,08,11,09,42,23.50
2014,08,11,09,43,23.40
2014,08,11,09,44,23.20
2014,08,11,09,45,23.20
2014,08,11,09,46,23.10
2014,08,11,09,47,23.10
2014,08,11,09,48,23.10
2014,08,11,09,49,23.10
2014,08,11,09,50,23.10
2014,08,11,09,51,23.10
2014,08,11,09,52,23.20
2014,08,11,09,53,23.20
2014,08,11,09,54,23.20
2014,08,11,09,55,23.10
2014,08,11,09,56,23.20
2014,08,11,09,57,23.20
2014,08,11,09,58,23.20
2014,08,11,09,59,23.20
2014,08,11,10,00,23.30
2014,08,11,10,01,23.30
2014,08,11,10,02,23.30
2014,08,11,10,03,23.20
2014,08,11,10,04,23.20
2014,08,11,10,05,23.10
2014,08,11,10,06,23.10
2014,08,11,10,07,23.00
2014,08,11,10,08,22.90
2014,08,11,10,09,22.80
2014,08,11,10,10,22.80
2014,08,11,10,11,22.70
2014,08,11,10,12,22.70
2014,08,11,10,13,22.60
2014,08,11,10,14,22.70
2014,08,11,10,15,22.70
2014,08,11,10,16,22.70
2014,08,11,10,17,22.80
2014,08,11,10,18,22.80
2014,08,11,10,19,22.80
2014,08,11,10,20,22.90
2014,08,11,10,21,22.90
2014,08,11,10,22,22.90
2014,08,11,10,23,22.90
2014,08,11,10,24,22.80
2014,08,11,10,25,22.80
2014,08,11,10,26,22.80
2014,08,11,10,27,22.80
2014,08,11,10,28,22.80
2014,08,11,10,29,22.80
2014,08,11,10,30,22.80
2014,08,11,10,31,22.80
2014,08,11,10,32,22.80
2014,08,11,10,33,22.90
2014,08,11,10,34,22.90
2014,08,11,10,35,23.00
2014,08,11,10,36,23.10
2014,08,11,10,37,23.10
2014,08,11,10,38,23.10
2014,08,11,10,39,23.10
2014,08,11,10,40,23.10
2014,08,11,10,41,23.10
2014,08,11,10,42,23.20
2014,08,11,10,43,23.20
2014,08,11,10,44,23.10
2014,08,11,10,45,23.10
2014,08,11,10,46,23.00
2014,08,11,10,47,22.90
2014,08,11,10,48,22.90
2014,08,11,10,49,22.90
2014,08,11,10,50,22.90
2014,08,11,10,51,22.90
2014,08,11,10,52,22.90
2014,08,11,10,53,22.90
2014,08,11,10,54,23.00
2014,08,11,10,55,23.00
2014,08,11,10,56,23.00
2014,08,11,10,57,23.00
2014,08,11,10,58,23.00
2014,08,11,10,59,23.00
2014,08,11,11,00,23.00
2014,08,11,11,01,23.00
2014,08,11,11,02,22.90
2014,08,11,11,03,22.90
2014,08,11,11,04,22.90
2014,08,11,11,05,22.90
2014,08,11,11,06,22.90
2014,08,11,11,07,22.90
2014,08,11,11,08,23.00
2014,08,11,11,09,23.00
2014,08,11,11,10,23.00
2014,08,11,11,11,23.00
2014,08,11,11,12,23.00
2014,08,11,11,13,23.00
2014,08,11,11,14,23.00
2014,08,11,11,15,23.00
2014,08,11,11,16,23.00
2014,08,11,11,17,23.00
2014,08,11,11,18,23.00
2014,08,11,11,19,23.00
2014,08,11,11,20,23.00
2014,08,11,11,21,23.00
2014,08,11,11,22,22.90
2014,08,11,11,23,22.90
2014,08,11,11,24,23.00
2014,08,11,11,25,23.00
2014,08,11,11,26,23.10
2014,08,11,11,27,23.20
2014,08,11,11,28,23.30
2014,08,11,11,29,23.30
2014,08,11,11,30,23.40
2014,08,11,11,31,23.40
2014,08,11,11,32,23.40
2014,08,11,11,33,23.40
2014,08,11,11,34,23.40
2014,08,11,11,35,23.40
2014,08,11,11,36,23.40
2014,08,11,11,37,23.40
2014,08,11,11,38,23.50
2014,08,11,11,39,23.50
2014,08,11,11,40,23.50
2014,08,11,11,41,23.60
2014,08,11,11,42,23.60
2014,08,11,11,43,23.60
2014,08,11,11,44,23.60
2014,08,11,11,45,23.60
2014,08,11,11,46,23.70
2014,08,11,11,47,23.70
2014,08,11,11,48,23.70
2014,08,11,11,49,23.80
2014,08,11,11,50,23.70
2014,08,11,11,51,23.80
2014,08,11,11,52,23.80
2014,08,11,11,53,23.80
2014,08,11,11,54,23.90
2014,08,11,11,55,23.90
2014,08,11,11,56,23.90
2014,08,11,11,57,23.80
2014,08,11,11,58,23.80
2014,08,11,11,59,23.90
2014,08,11,12,00,24.00
2014,08,11,12,01,24.00
2014,08,11,12,02,24.10
2014,08,11,12,03,24.10
2014,08,11,12,04,24.10
2014,08,11,12,05,24.10
2014,08,11,12,06,24.10
2014,08,11,12,07,24.10
2014,08,11,12,08,24.10
2014,08,11,12,09,24.10
2014,08,11,12,10,24.10
2014,08,11,12,11,24.10
2014,08,11,12,12,24.10
2014,08,11,12,13,24.10
2014,08,11,12,14,24.20
2014,08,11,12,15,24.20
2014,08,11,12,16,24.20
2014,08,11,12,17,24.20
2014,08,11,12,18,24.20
2014,08,11,12,19,24.20
2014,08,11,12,20,24.20
2014,08,11,12,21,24.30
2014,08,11,12,22,24.20
2014,08,11,12,23,24.30
2014,08,11,12,24,24.30
2014,08,11,12,25,24.30
2014,08,11,12,26,24.40
2014,08,11,12,27,24.40
2014,08,11,12,28,24.40
2014,08,11,12,29,24.40
2014,08,11,12,30,24.50
2014,08,11,12,31,24.50
2014,08,11,12,32,24.60
2014,08,11,12,33,24.60
2014,08,11,12,34,24.70
2014,08,11,12,35,24.70
2014,08,11,12,36,24.80
2014,08,11,12,37,24.80
2014,08,11,12,38,24.90
2014,08,11,12,39,24.90
2014,08,11,12,40,24.90
2014,08,11,12,41,24.90
2014,08,11,12,42,24.80
2014,08,11,12,43,24.80
2014,08,11,12,44,24.70
2014,08,11,12,45,24.70
2014,08,11,12,46,24.80
2014,08,11,12,47,24.80
2014,08,11,12,48,24.80
2014,08,11,12,49,24.90
2014,08,11,12,50,25.00
2014,08,11,12,51,25.00
2014,08,11,12,52,25.20
2014,08,11,12,53,25.30
2014,08,11,12,54,25.40
2014,08,11,12,55,25.30
2014,08,11,12,56,25.30
2014,08,11,12,57,25.30
2014,08,11,12,58,25.30
2014,08,11,12,59,25.30
2014,08,11,13,00,25.40
2014,08,11,13,01,25.40
2014,08,11,13,02,25.50
2014,08,11,13,03,25.60
2014,08,11,13,04,25.60
2014,08,11,13,05,25.70
2014,08,11,13,06,25.70
2014,08,11,13,07,25.70
2014,08,11,13,08,25.70
2014,08,11,13,09,25.80
2014,08,11,13,10,25.80
2014,08,11,13,11,25.80
2014,08,11,13,12,25.90
2014,08,11,13,13,25.90
2014,08,11,13,14,25.90
2014,08,11,13,15,25.90
2014,08,11,13,16,25.80
2014,08,11,13,17,25.70
2014,08,11,13,18,25.60
2014,08,11,13,19,25.60
2014,08,11,13,20,25.60
2014,08,11,13,21,25.60
2014,08,11,13,22,25.60
2014,08,11,13,23,25.60
2014,08,11,13,24,25.60
2014,08,11,13,25,25.60
2014,08,11,13,26,25.60
2014,08,11,13,27,25.70
2014,08,11,13,28,25.80
2014,08,11,13,29,25.90
2014,08,11,13,30,25.90
2014,08,11,13,31,25.90
2014,08,11,13,32,25.90
2014,08,11,13,33,26.00
2014,08,11,13,34,26.00
2014,08,11,13,35,26.10
2014,08,11,13,36,26.00
2014,08,11,13,37,25.90
2014,08,11,13,38,25.90
2014,08,11,13,39,25.90
2014,08,11,13,40,25.90
2014,08,11,13,41,25.90
2014,08,11,13,42,25.90
2014,08,11,13,43,26.00
2014,08,11,13,44,26.00
2014,08,11,13,45,26.00
2014,08,11,13,46,26.00
2014,08,11,13,47,26.00
2014,08,11,13,48,26.10
2014,08,11,13,49,26.10
2014,08,11,13,50,26.20
2014,08,11,13,51,26.30
2014,08,11,13,52,26.40
2014,08,11,13,53,26.50
2014,08,11,13,54,26.50
2014,08,11,13,55,26.50
2014,08,11,13,56,26.50
2014,08,11,13,57,26.60
2014,08,11,13,58,26.60
2014,08,11,13,59,26.60
2014,08,11,14,00,26.50
2014,08,11,14,01,26.40
2014,08,11,14,02,26.40
2014,08,11,14,03,26.40
2014,08,11,14,04,26.50
2014,08,11,14,05,26.60
2014,08,11,14,06,26.60
2014,08,11,14,07,26.70
2014,08,11,14,08,26.70
2014,08,11,14,09,26.80
2014,08,11,14,10,26.70
2014,08,11,14,11,26.60
2014,08,11,14,12,26.60
2014,08,11,14,13,26.50
2014,08,11,14,14,26.40
2014,08,11,14,15,26.40
2014,08,11,14,16,26.40
2014,08,11,14,17,26.40
2014,08,11,14,18,26.40
2014,08,11,14,19,26.40
2014,08,11,14,20,26.50
2014,08,11,14,21,26.60
2014,08,11,14,22,26.60
2014,08,11,14,23,26.60
2014,08,11,14,24,26.60
2014,08,11,14,25,26.60
2014,08,11,14,26,26.60
2014,08,11,14,27,26.50
2014,08,11,14,28,26.50
2014,08,11,14,29,26.50
2014,08,11,14,30,26.50
2014,08,11,14,31,26.50
2014,08,11,14,32,26.60
2014,08,11,14,33,26.70
2014,08,11,14,34,26.70
2014,08,11,14,35,26.70
2014,08,11,14,36,26.80
2014,08,11,14,37,26.80
2014,08,11,14,38,26.90
2014,08,11,14,39,26.90
2014,08,11,14,40,27.00
2014,08,11,14,41,27.10
2014,08,11,14,42,27.10
2014,08,11,14,43,27.10
2014,08,11,14,44,27.10
2014,08,11,14,45,27.10
2014,08,11,14,46,27.10
2014,08,11,14,47,27.10
2014,08,11,14,48,27.10
2014,08,11,14,49,27.10
2014,08,11,14,50,27.10
2014,08,11,14,51,27.20
2014,08,11,14,52,27.20
2014,08,11,14,53,27.30
2014,08,11,14,54,27.30
2014,08,11,14,55,27.30
2014,08,11,14,56,27.30
2014,08,11,14,57,27.30
2014,08,11,14,58,27.20
2014,08,11,14,59,27.10
2014,08,11,15,00,27.10
2014,08,11,15,01,27.00
2014,08,11,15,02,26.90
2014,08,11,15,03,26.80
2014,08,11,15,04,26.70
2014,08,11,15,05,26.60
2014,08,11,15,06,26.50
2014,08,11,15,07,26.40
2014,08,11,15,08,26.30
2014,08,11,15,09,26.30
2014,08,11,15,10,26.20
2014,08,11,15,11,26.10
2014,08,11,15,12,26.10
2014,08,11,15,13,26.00
2014,08,11,15,14,26.00
2014,08,11,15,15,26.00
2014,08,11,15,16,26.00
2014,08,11,15,17,26.10
2014,08,11,15,18,26.20
2014,08,11,15,19,26.30
2014,08,11,15,20,26.30
2014,08,11,15,21,26.40
2014,08,11,15,22,26.40
2014,08,11,15,23,26.40
2014,08,11,15,24,26.40
2014,08,11,15,25,26.40
2014,08,11,15,26,26.40
2014,08,11,15,27,26.40
2014,08,11,15,28,26.40
2014,08,11,15,29,26.50
2014,08,11,15,30,26.60
2014,08,11,15,31,26.60
2014,08,11,15,32,26.70
2014,08,11,15,33,26.70
2014,08,11,15,34,26.80
2014,08,11,15,35,26.80
2014,08,11,15,36,26.90
2014,08,11,15,37,27.00
2014,08,11,15,38,27.00
2014,08,11,15,39,27.10
2014,08,11,15,40,27.10
2014,08,11,15,41,27.10
2014,08,11,15,42,27.10
2014,08,11,15,43,27.10
2014,08,11,15,44,27.10
2014,08,11,15,45,27.10
2014,08,11,15,46,27.10
2014,08,11,15,47,27.10
2014,08,11,15,48,27.10
2014,08,11,15,49,27.10
2014,08,11,15,50,27.10
2014,08,11,15,51,27.10
2014,08,11,15,52,27.10
2014,08,11,15,53,27.20
2014,08,11,15,54,27.20
2014,08,11,15,55,27.30
2014,08,11,15,56,27.30
2014,08,11,15,57,27.30
2014,08,11,15,58,27.40
2014,08,11,15,59,27.40
2014,08,11,16,00,27.40
2014,08,11,16,01,27.40
2014,08,11,16,02,27.40
2014,08,11,16,03,27.30
2014,08,11,16,04,27.40
2014,08,11,16,05,27.40
2014,08,11,16,06,27.40
2014,08,11,16,07,27.40
2014,08,11,16,08,27.40
2014,08,11,16,09,27.50
2014,08,11,16,10,27.60
2014,08,11,16,11,27.60
2014,08,11,16,12,27.70
2014,08,11,16,13,27.70
2014,08,11,16,14,27.80
2014,08,11,16,15,27.90
2014,08,11,16,16,28.00
2014,08,11,16,17,28.20
2014,08,11,16,18,28.30
2014,08,11,16,19,28.40
2014,08,11,16,20,28.60
2014,08,11,16,21,28.70
2014,08,11,16,22,28.90
2014,08,11,16,23,29.00
2014,08,11,16,24,29.20
2014,08,11,16,25,29.30
2014,08,11,16,26,29.30
2014,08,11,16,27,29.40
2014,08,11,16,28,29.40
2014,08,11,16,29,29.40
2014,08,11,16,30,29.40
2014,08,11,16,31,29.40
2014,08,11,16,32,29.30
2014,08,11,16,33,29.30
2014,08,11,16,34,29.30
2014,08,11,16,35,29.40
2014,08,11,16,36,29.40
2014,08,11,16,37,29.50
2014,08,11,16,38,29.50
2014,08,11,16,39,29.60
2014,08,11,16,40,29.60
2014,08,11,16,41,29.60
2014,08,11,16,42,29.70
2014,08,11,16,43,29.70
2014,08,11,16,44,29.70
2014,08,11,16,45,29.80
2014,08,11,16,46,29.80
2014,08,11,16,47,29.80
2014,08,11,16,48,29.80
2014,08,11,16,49,29.70
2014,08,11,16,50,29.70
2014,08,11,16,51,29.70
2014,08,11,16,52,29.60
2014,08,11,16,53,29.60
2014,08,11,16,54,29.50
2014,08,11,16,55,29.50
2014,08,11,16,56,29.40
2014,08,11,16,57,29.40
2014,08,11,16,58,29.40
2014,08,11,16,59,29.30
2014,08,11,17,00,29.30
2014,08,11,17,01,29.30
2014,08,11,17,02,29.30
2014,08,11,17,03,29.20
2014,08,11,17,04,29.20
2014,08,11,17,05,29.20
2014,08,11,17,06,29.20
2014,08,11,17,07,29.20
2014,08,11,17,08,29.20
2014,08,11,17,09,29.10
2014,08,11,17,10,29.10
2014,08,11,17,11,29.10
2014,08,11,17,12,29.00
2014,08,11,17,13,29.00
2014,08,11,17,14,28.90
2014,08,11,17,15,28.90
2014,08,11,17,16,28.90
2014,08,11,17,17,28.90
2014,08,11,17,18,28.90
2014,08,11,17,19,28.90